Flag for Germany Weather past 2 weeks in Weilheim in Oberbayern, Bavaria, Germany

28 °F

Ice fog.

Feels Like: 22 °F
Forecast: 20 / 38 °F
Wind: 6 mph from East

Location: Altenstadt Airport

Current Time: Nov 27, 2015 at 6:19:18 AM

Latest Report: Nov 27, 2015 at 5:20 AM

Visibility: 0 mi

Pressure: 30.07 "Hg (28.02 "Hg at 560m altitude)

Humidity: 100%

Dew point: 28 °F

Location of Weilheim in OberbayernLocation

Historic Weather in Weilheim in Oberbayern — Graph


Weilheim in Oberbayern temperature yesterday

Maximum temperature yesterday: 34 °F (at 2:20 PM)
Minimum temperature yesterday: 30 °F (at 9:20 PM)
Average temperature yesterday: 32 °F

Past Weeks' High & Low Weather Summary

High64 °F (Nov 16, 1:20 PM)100% (Nov 12, 6:20 AM)30.42 "Hg (Nov 12, 6:20 AM)
Low14 °F (Nov 24, 6:20 AM)30% (Nov 15, 7:20 AM)29.39 "Hg (Nov 21, 2:20 PM)
Average42 °F76%30.01 "Hg
* Reported Nov 12 4:20 AM — Nov 27 4:20 AM, Weilheim in Oberbayern, Weather by CustomWeather, © 2015

Note: Actual official high and low records may vary slightly from our data, if they occured in-between our weather recording intervals... More about our weather records


Weilheim in Oberbayern weather history for previous 24 hours

Time TempWeatherWind HumidityBarometerVisibility
4:20 AM
Fri, Nov 27
28 °FChilly.3 mph100%30.07 "HgN/A
3:20 AM30 °FChilly.2 mph93%30.07 "HgN/A
2:20 AM30 °FChilly.2 mph93%30.09 "HgN/A
1:20 AM30 °FChilly.2 mph93%30.09 "HgN/A
12:20 AM27 °FChilly.1 mph100%30.09 "HgN/A
11:20 PM
Thu, Nov 26
30 °FChilly.2 mph100%30.09 "HgN/A
10:20 PM30 °FChilly.1 mph100%30.07 "HgN/A
9:20 PM30 °FChilly.1 mph100%30.07 "HgN/A
8:20 PM32 °FLight snow. Ice fog.1 mph93%30.07 "Hg2 mi
8:00 PM32 °FLight snow. Ice fog.2 mph93%30.07 "Hg3 mi
7:20 PM32 °FLight snow. Ice fog.1 mph93%30.07 "Hg3 mi
6:20 PM32 °FLight snow. Ice fog.2 mph93%30.04 "Hg3 mi
5:20 PM32 °FIce fog.7 mph93%30.01 "Hg2 mi
4:20 PM32 °FIce fog.6 mph93%29.98 "Hg2 mi
4:00 PM32 °FLight snow. Ice fog.3 mph100%29.98 "Hg1 mi
3:20 PM32 °FSnow. Ice fog.2 mph100%29.95 "Hg1 mi
2:50 PM32 °FLight snow. Ice fog.3 mph100%29.95 "Hg1 mi
2:20 PM34 °FLight snow. Partly sunny.5 mph93%29.95 "Hg2 mi
1:20 PM32 °FLight snow. Partly sunny.3 mph100%29.92 "Hg2 mi
1:00 PM32 °FSnow. Partly sunny.3 mph100%29.92 "Hg1 mi
12:20 PM32 °FLight snow. Broken clouds.3 mph100%29.92 "Hg4 mi
11:20 AM32 °FLight snow. Ice fog.2 mph93%29.89 "Hg2 mi
10:20 AM32 °FPartly sunny.7 mph93%29.89 "Hg4 mi
9:20 AM32 °FIce fog.6 mph93%29.86 "Hg3 mi
8:20 AM32 °FIce fog.8 mph93%29.83 "Hg2 mi
7:49 AM32 °FIce fog.7 mph93%29.83 "Hg2 mi
7:20 AM32 °FLight snow. Passing clouds.9 mph93%29.80 "Hg2 mi
6:48 AM32 °FLight snow. Passing clouds.8 mph93%29.80 "Hg2 mi
6:20 AM32 °FLight snow. Partly cloudy.7 mph93%29.77 "Hg3 mi
Weather by CustomWeather, © 2015

See weather overviewHow to use our weather pages